Time,TemperatureF,DewpointF,PressureIn,WindDirection,WindDirectionDegrees,WindSpeedMPH,WindSpeedGustMPH,Humidity,HourlyPrecipIn,Conditions,Clouds,dailyrainin,SoftwareType,DateUTC
2013-02-14 00:00:00,32.5,29.1,29.88,WSW,250,3.0,4.0,87,0.00,,,0.00,Wunderground v.1.15,2013-02-14 05:00:00,
2013-02-14 00:05:00,32.5,29.1,29.88,WSW,247,3.0,4.0,87,0.00,,,0.00,Wunderground v.1.15,2013-02-14 05:05:00,
2013-02-14 00:10:00,32.5,29.3,29.89,West,263,4.0,5.0,88,0.00,,,0.00,Wunderground v.1.15,2013-02-14 05:10:00,
2013-02-14 00:15:00,32.5,29.3,29.89,West,259,3.0,5.0,88,0.00,,,0.00,Wunderground v.1.15,2013-02-14 05:15:00,
2013-02-14 00:20:00,32.4,29.2,29.89,WNW,283,3.0,3.0,88,0.00,,,0.00,Wunderground v.1.15,2013-02-14 05:20:00,
2013-02-14 00:25:00,32.4,29.2,29.90,WSW,242,4.0,4.0,88,0.00,,,0.00,Wunderground v.1.15,2013-02-14 05:25:00,
2013-02-14 00:30:00,32.3,29.1,29.90,SW,235,3.0,3.0,88,0.00,,,0.00,Wunderground v.1.15,2013-02-14 05:30:00,
2013-02-14 00:35:00,32.3,29.1,29.90,WSW,246,3.0,3.0,88,0.00,,,0.00,Wunderground v.1.15,2013-02-14 05:35:00,
2013-02-14 00:40:00,32.3,29.1,29.90,WSW,248,3.0,3.0,88,0.00,,,0.00,Wunderground v.1.15,2013-02-14 05:40:00,
2013-02-14 00:50:00,32.2,29.0,29.90,WSW,239,3.0,3.0,88,0.00,,,0.00,Wunderground v.1.15,2013-02-14 05:50:00,
2013-02-14 00:55:00,32.2,29.0,29.90,West,270,3.0,3.0,88,0.00,,,0.00,Wunderground v.1.15,2013-02-14 05:55:00,
2013-02-14 01:00:00,32.2,29.0,29.90,SW,235,3.0,3.0,88,0.00,,,0.00,Wunderground v.1.15,2013-02-14 06:00:00,
2013-02-14 07:30:00,28.8,25.4,30.01,WSW,252,1.0,2.0,87,0.00,,,0.00,Wunderground v.1.15,2013-02-14 12:30:00,
2013-02-14 07:35:00,28.8,25.4,30.01,West,263,1.0,2.0,87,0.00,,,0.00,Wunderground v.1.15,2013-02-14 12:35:00,
2013-02-14 08:00:00,28.4,25.0,30.04,SW,225,0.0,1.0,87,0.00,,,0.00,Wunderground v.1.15,2013-02-14 13:00:00,
2013-02-14 08:05:00,28.6,25.2,30.04,West,279,0.0,2.0,87,0.00,,,0.00,Wunderground v.1.15,2013-02-14 13:05:00,
2013-02-14 08:10:00,28.9,25.8,30.04,WNW,283,1.0,1.0,88,0.00,,,0.00,Wunderground v.1.15,2013-02-14 13:10:00,
2013-02-14 08:15:00,29.3,25.9,30.03,West,273,2.0,2.0,87,0.00,,,0.00,Wunderground v.1.15,2013-02-14 13:15:00,
2013-02-14 08:20:00,29.7,26.3,30.03,WSW,257,2.0,2.0,87,0.00,,,0.00,Wunderground v.1.15,2013-02-14 13:20:00,
2013-02-14 08:25:00,30.0,26.3,30.03,West,264,2.0,2.0,86,0.00,,,0.00,Wunderground v.1.15,2013-02-14 13:25:00,
2013-02-14 08:30:00,30.5,26.5,30.04,West,262,1.0,1.0,85,0.00,,,0.00,Wunderground v.1.15,2013-02-14 13:30:00,
2013-02-14 08:35:00,30.9,26.6,30.04,WSW,241,1.0,4.0,84,0.00,,,0.00,Wunderground v.1.15,2013-02-14 13:35:00,
2013-02-14 08:40:00,31.3,26.7,30.04,SW,224,1.0,4.0,83,0.00,,,0.00,Wunderground v.1.15,2013-02-14 13:40:00,
2013-02-14 08:45:00,31.8,26.9,30.04,West,274,0.0,4.0,82,0.00,,,0.00,Wunderground v.1.15,2013-02-14 13:45:00,
2013-02-14 08:50:00,31.9,26.7,30.05,West,274,1.0,1.0,81,0.00,,,0.00,Wunderground v.1.15,2013-02-14 13:50:00,
2013-02-14 08:55:00,32.4,27.2,30.05,SE,127,1.0,4.0,81,0.00,,,0.00,Wunderground v.1.15,2013-02-14 13:55:00,
2013-02-14 09:05:00,33.6,27.8,30.06,NW,309,0.0,4.0,79,0.00,,,0.00,Wunderground v.1.15,2013-02-14 14:05:00,
2013-02-14 09:10:00,33.6,27.2,30.06,West,263,0.0,4.0,77,0.00,,,0.00,Wunderground v.1.15,2013-02-14 14:10:00,
2013-02-14 09:15:00,33.6,27.5,30.06,West,278,0.0,4.0,78,0.00,,,0.00,Wunderground v.1.15,2013-02-14 14:15:00,
2013-02-14 09:20:00,33.4,27.0,30.06,West,270,1.0,4.0,77,0.00,,,0.00,Wunderground v.1.15,2013-02-14 14:20:00,
2013-02-14 09:25:00,33.5,27.7,30.07,West,274,1.0,4.0,79,0.00,,,0.00,Wunderground v.1.15,2013-02-14 14:25:00,
2013-02-14 09:30:00,33.6,27.5,30.07,WNW,302,1.0,4.0,78,0.00,,,0.00,Wunderground v.1.15,2013-02-14 14:30:00,
2013-02-14 09:35:00,33.8,27.7,30.06,WSW,252,1.0,4.0,78,0.00,,,0.00,Wunderground v.1.15,2013-02-14 14:35:00,
2013-02-14 09:40:00,34.4,28.2,30.06,WNW,294,1.0,4.0,78,0.00,,,0.00,Wunderground v.1.15,2013-02-14 14:40:00,
2013-02-14 09:45:00,35.0,28.5,30.05,WSW,240,1.0,4.0,77,0.00,,,0.00,Wunderground v.1.15,2013-02-14 14:45:00,
2013-02-14 09:50:00,35.6,28.5,30.05,ENE,76,1.0,4.0,75,0.00,,,0.00,Wunderground v.1.15,2013-02-14 14:50:00,
2013-02-14 09:55:00,36.1,28.3,30.05,West,269,1.0,4.0,73,0.00,,,0.00,Wunderground v.1.15,2013-02-14 14:55:00,
2013-02-14 10:00:00,36.3,28.5,30.06,NW,312,1.0,4.0,73,0.00,,,0.00,Wunderground v.1.15,2013-02-14 15:00:00,
2013-02-14 10:05:00,36.2,29.0,30.06,East,101,1.0,4.0,75,0.00,,,0.00,Wunderground v.1.15,2013-02-14 15:05:00,
2013-02-14 10:10:00,36.9,29.7,30.07,NE,47,1.0,4.0,75,0.00,,,0.00,Wunderground v.1.15,2013-02-14 15:10:00,
2013-02-14 10:15:00,37.7,29.5,30.06,SSW,208,1.0,4.0,72,0.00,,,0.00,Wunderground v.1.15,2013-02-14 15:15:00,
2013-02-14 10:20:00,38.3,30.1,30.06,East,92,1.0,4.0,72,0.00,,,0.00,Wunderground v.1.15,2013-02-14 15:20:00,
2013-02-14 10:25:00,38.5,30.6,30.06,North,356,1.0,4.0,73,0.00,,,0.00,Wunderground v.1.15,2013-02-14 15:25:00,
2013-02-14 10:30:00,39.1,30.5,30.05,West,259,1.0,4.0,71,0.00,,,0.00,Wunderground v.1.15,2013-02-14 15:30:00,
2013-02-14 10:35:00,39.6,30.3,30.05,WSW,248,1.0,4.0,69,0.00,,,0.00,Wunderground v.1.15,2013-02-14 15:35:00,
2013-02-14 10:40:00,39.9,30.5,30.05,NNW,332,1.0,4.0,69,0.00,,,0.00,Wunderground v.1.15,2013-02-14 15:40:00,
2013-02-14 10:50:00,40.6,29.7,30.04,SSE,149,1.0,4.0,65,0.00,,,0.00,Wunderground v.1.15,2013-02-14 15:50:00,
2013-02-14 10:55:00,40.6,30.9,30.04,SW,236,1.0,4.0,68,0.00,,,0.00,Wunderground v.1.15,2013-02-14 15:55:00,
2013-02-14 11:00:00,40.6,30.5,30.04,South,174,2.0,4.0,67,0.00,,,0.00,Wunderground v.1.15,2013-02-14 16:00:00,
2013-02-14 11:05:00,41.1,30.2,30.04,SSW,194,2.0,4.0,65,0.00,,,0.00,Wunderground v.1.15,2013-02-14 16:05:00,
2013-02-14 11:15:00,40.6,29.7,30.05,ENE,64,2.0,4.0,65,0.00,,,0.00,Wunderground v.1.15,2013-02-14 16:15:00,
2013-02-14 11:25:00,40.5,29.7,30.05,East,90,2.0,4.0,65,0.00,,,0.00,Wunderground v.1.15,2013-02-14 16:25:00,
2013-02-14 11:30:00,40.7,29.8,30.05,East,79,2.0,4.0,65,0.00,,,0.00,Wunderground v.1.15,2013-02-14 16:30:00,
2013-02-14 11:40:00,41.0,29.7,30.04,West,266,2.0,2.0,64,0.00,,,0.00,Wunderground v.1.15,2013-02-14 16:40:00,
2013-02-14 11:45:00,41.5,29.8,30.05,ESE,102,2.0,4.0,63,0.00,,,0.00,Wunderground v.1.15,2013-02-14 16:45:00,
2013-02-14 11:50:00,41.7,30.0,30.04,East,79,2.0,2.0,63,0.00,,,0.00,Wunderground v.1.15,2013-02-14 16:50:00,
2013-02-14 11:55:00,42.0,30.3,30.05,ESE,107,1.0,4.0,63,0.00,,,0.00,Wunderground v.1.15,2013-02-14 16:55:00,
2013-02-14 12:05:00,44.2,31.6,30.05,SW,226,0.0,4.0,61,0.00,,,0.00,Wunderground v.1.15,2013-02-14 17:05:00,
2013-02-14 12:10:00,44.6,29.9,30.05,East,87,1.0,5.0,56,0.00,,,0.00,Wunderground v.1.15,2013-02-14 17:10:00,
2013-02-14 12:15:00,44.0,30.6,30.05,SE,130,2.0,5.0,59,0.00,,,0.00,Wunderground v.1.15,2013-02-14 17:15:00,
2013-02-14 12:25:00,44.8,30.5,30.05,NNE,32,2.0,3.0,57,0.00,,,0.00,Wunderground v.1.15,2013-02-14 17:25:00,
2013-02-14 12:30:00,45.1,31.2,30.05,SSW,210,2.0,4.0,58,0.00,,,0.00,Wunderground v.1.15,2013-02-14 17:30:00,
2013-02-14 12:40:00,46.0,30.7,30.04,ESE,104,1.0,4.0,55,0.00,,,0.00,Wunderground v.1.15,2013-02-14 17:40:00,
2013-02-14 12:45:00,46.5,28.8,30.04,West,262,1.0,4.0,50,0.00,,,0.00,Wunderground v.1.15,2013-02-14 17:45:00,
2013-02-14 12:50:00,45.8,28.2,30.04,SE,124,1.0,4.0,50,0.00,,,0.00,Wunderground v.1.15,2013-02-14 17:50:00,
2013-02-14 12:55:00,45.9,29.2,30.03,SSE,148,2.0,4.0,52,0.00,,,0.00,Wunderground v.1.15,2013-02-14 17:55:00,
2013-02-14 13:05:00,47.2,28.0,30.03,SE,128,1.0,4.0,47,0.00,,,0.00,Wunderground v.1.15,2013-02-14 18:05:00,
2013-02-14 13:10:00,46.8,27.6,30.02,SE,127,2.0,2.0,47,0.00,,,0.00,Wunderground v.1.15,2013-02-14 18:10:00,
2013-02-14 13:15:00,46.9,29.2,30.02,ESE,110,2.0,4.0,50,0.00,,,0.00,Wunderground v.1.15,2013-02-14 18:15:00,
2013-02-14 13:20:00,46.9,26.6,30.01,ESE,103,2.0,4.0,45,0.00,,,0.00,Wunderground v.1.15,2013-02-14 18:20:00,
2013-02-14 13:25:00,46.7,27.0,30.01,SW,232,2.0,4.0,46,0.00,,,0.00,Wunderground v.1.15,2013-02-14 18:25:00,
2013-02-14 13:30:00,47.5,28.3,30.01,NNW,332,2.0,2.0,47,0.00,,,0.00,Wunderground v.1.15,2013-02-14 18:30:00,
2013-02-14 13:35:00,48.3,27.9,30.00,SE,126,1.0,4.0,45,0.00,,,0.00,Wunderground v.1.15,2013-02-14 18:35:00,
2013-02-14 13:40:00,49.0,28.6,30.00,NW,326,1.0,4.0,45,0.00,,,0.00,Wunderground v.1.15,2013-02-14 18:40:00,
2013-02-14 13:45:00,48.5,25.8,29.99,ESE,119,1.0,4.0,41,0.00,,,0.00,Wunderground v.1.15,2013-02-14 18:45:00,
2013-02-14 13:50:00,48.3,27.9,29.99,NNE,18,2.0,2.0,45,0.00,,,0.00,Wunderground v.1.15,2013-02-14 18:50:00,
2013-02-14 13:55:00,48.6,27.1,29.99,NW,311,2.0,4.0,43,0.00,,,0.00,Wunderground v.1.15,2013-02-14 18:55:00,
2013-02-14 14:00:00,49.0,26.3,29.99,WSW,245,2.0,2.0,41,0.00,,,0.00,Wunderground v.1.15,2013-02-14 19:00:00,
2013-02-14 14:05:00,49.4,26.7,29.98,SSE,159,1.0,4.0,41,0.00,,,0.00,Wunderground v.1.15,2013-02-14 19:05:00,
2013-02-14 14:10:00,49.7,27.5,29.98,SSE,167,1.0,1.0,42,0.00,,,0.00,Wunderground v.1.15,2013-02-14 19:10:00,
2013-02-14 14:20:00,49.7,25.7,29.98,ESE,102,1.0,6.0,39,0.00,,,0.00,Wunderground v.1.15,2013-02-14 19:20:00,
2013-02-14 14:30:00,50.6,24.6,30.00,South,169,2.0,2.0,36,0.00,,,0.00,Wunderground v.1.15,2013-02-14 19:30:00,
2013-02-14 14:35:00,50.6,26.5,30.00,WSW,250,1.0,4.0,39,0.00,,,0.00,Wunderground v.1.15,2013-02-14 19:35:00,
2013-02-14 14:40:00,50.8,26.1,30.01,SSW,201,1.0,4.0,38,0.00,,,0.00,Wunderground v.1.15,2013-02-14 19:40:00,
2013-02-14 14:45:00,50.8,24.1,30.01,SW,228,1.0,4.0,35,0.00,,,0.00,Wunderground v.1.15,2013-02-14 19:45:00,
2013-02-14 14:50:00,50.0,24.7,30.01,SSW,208,2.0,4.0,37,0.00,,,0.00,Wunderground v.1.15,2013-02-14 19:50:00,
2013-02-14 14:55:00,49.7,24.5,30.01,WSW,239,3.0,4.0,37,0.00,,,0.00,Wunderground v.1.15,2013-02-14 19:55:00,
2013-02-14 15:00:00,49.4,24.8,30.01,WSW,238,3.0,3.0,38,0.00,,,0.00,Wunderground v.1.15,2013-02-14 20:00:00,
2013-02-14 15:05:00,49.6,25.6,30.00,North,8,2.0,4.0,39,0.00,,,0.00,Wunderground v.1.15,2013-02-14 20:05:00,
2013-02-14 15:10:00,49.9,27.1,30.00,ENE,68,1.0,4.0,41,0.00,,,0.00,Wunderground v.1.15,2013-02-14 20:10:00,
2013-02-14 15:15:00,50.2,27.4,29.99,SE,140,1.0,4.0,41,0.00,,,0.00,Wunderground v.1.15,2013-02-14 20:15:00,
2013-02-14 15:20:00,50.6,27.1,29.99,SW,236,1.0,4.0,40,0.00,,,0.00,Wunderground v.1.15,2013-02-14 20:20:00,
2013-02-14 15:25:00,50.2,26.2,29.99,SSW,200,1.0,4.0,39,0.00,,,0.00,Wunderground v.1.15,2013-02-14 20:25:00,
2013-02-14 15:30:00,50.0,26.0,29.99,SW,235,2.0,4.0,39,0.00,,,0.00,Wunderground v.1.15,2013-02-14 20:30:00,
2013-02-14 15:40:00,49.8,26.4,30.00,East,94,2.0,4.0,40,0.00,,,0.00,Wunderground v.1.15,2013-02-14 20:40:00,
2013-02-14 15:50:00,49.7,27.5,30.00,WSW,248,1.0,4.0,42,0.00,,,0.00,Wunderground v.1.15,2013-02-14 20:50:00,
2013-02-14 15:55:00,49.3,26.6,30.00,SSE,167,2.0,4.0,41,0.00,,,0.00,Wunderground v.1.15,2013-02-14 20:55:00,
2013-02-14 16:00:00,49.3,27.7,30.00,SW,228,2.0,4.0,43,0.00,,,0.00,Wunderground v.1.15,2013-02-14 21:00:00,
2013-02-14 16:05:00,49.3,27.2,30.00,SW,235,1.0,4.0,42,0.00,,,0.00,Wunderground v.1.15,2013-02-14 21:05:00,
2013-02-14 16:10:00,49.4,27.2,30.00,WSW,245,1.0,4.0,42,0.00,,,0.00,Wunderground v.1.15,2013-02-14 21:10:00,
2013-02-14 16:15:00,49.6,27.4,30.00,NNE,12,1.0,4.0,42,0.00,,,0.00,Wunderground v.1.15,2013-02-14 21:15:00,
2013-02-14 16:20:00,49.5,27.9,30.00,SW,226,1.0,4.0,43,0.00,,,0.00,Wunderground v.1.15,2013-02-14 21:20:00,
2013-02-14 16:25:00,49.3,28.3,30.00,SSW,207,2.0,4.0,44,0.00,,,0.00,Wunderground v.1.15,2013-02-14 21:25:00,
2013-02-14 16:30:00,49.1,27.5,30.00,SSW,193,2.0,2.0,43,0.00,,,0.00,Wunderground v.1.15,2013-02-14 21:30:00,
2013-02-14 16:35:00,49.0,28.0,30.00,WSW,243,2.0,4.0,44,0.00,,,0.00,Wunderground v.1.15,2013-02-14 21:35:00,
2013-02-14 16:40:00,48.9,27.9,30.00,SE,132,2.0,2.0,44,0.00,,,0.00,Wunderground v.1.15,2013-02-14 21:40:00,
2013-02-14 16:45:00,48.9,27.9,30.00,SW,235,2.0,4.0,44,0.00,,,0.00,Wunderground v.1.15,2013-02-14 21:45:00,
2013-02-14 16:50:00,48.7,28.3,30.00,SW,221,2.0,4.0,45,0.00,,,0.00,Wunderground v.1.15,2013-02-14 21:50:00,
2013-02-14 16:55:00,48.5,28.1,30.00,West,262,2.0,4.0,45,0.00,,,0.00,Wunderground v.1.15,2013-02-14 21:55:00,
2013-02-14 17:00:00,48.1,27.7,30.00,WSW,239,2.0,4.0,45,0.00,,,0.00,Wunderground v.1.15,2013-02-14 22:00:00,
2013-02-14 17:10:00,47.4,28.2,30.00,SW,236,2.0,4.0,47,0.00,,,0.00,Wunderground v.1.15,2013-02-14 22:10:00,
2013-02-14 17:15:00,47.0,28.8,30.00,SW,232,2.0,4.0,49,0.00,,,0.00,Wunderground v.1.15,2013-02-14 22:15:00,
2013-02-14 17:20:00,46.6,28.4,30.00,SW,231,2.0,4.0,49,0.00,,,0.00,Wunderground v.1.15,2013-02-14 22:20:00,
2013-02-14 17:25:00,46.3,28.7,30.00,WSW,248,2.0,4.0,50,0.00,,,0.00,Wunderground v.1.15,2013-02-14 22:25:00,
2013-02-14 17:30:00,46.0,28.9,30.00,West,276,2.0,4.0,51,0.00,,,0.00,Wunderground v.1.15,2013-02-14 22:30:00,
2013-02-14 17:35:00,45.7,28.1,30.00,West,262,2.0,4.0,50,0.00,,,0.00,Wunderground v.1.15,2013-02-14 22:35:00,
2013-02-14 17:40:00,45.3,28.2,30.00,WSW,250,1.0,4.0,51,0.00,,,0.00,Wunderground v.1.15,2013-02-14 22:40:00,
2013-02-14 17:45:00,44.9,27.8,30.00,West,269,1.0,4.0,51,0.00,,,0.00,Wunderground v.1.15,2013-02-14 22:45:00,
2013-02-14 17:50:00,44.6,27.6,30.01,WSW,255,1.0,4.0,51,0.00,,,0.00,Wunderground v.1.15,2013-02-14 22:50:00,
2013-02-14 17:55:00,44.4,27.4,30.01,WSW,253,1.0,4.0,51,0.00,,,0.00,Wunderground v.1.15,2013-02-14 22:55:00,
2013-02-14 18:00:00,44.1,27.6,30.01,WSW,253,0.0,4.0,52,0.00,,,0.00,Wunderground v.1.15,2013-02-14 23:00:00,
2013-02-14 18:10:00,43.5,27.0,30.01,WSW,256,0.0,4.0,52,0.00,,,0.00,Wunderground v.1.15,2013-02-14 23:10:00,
2013-02-14 18:15:00,43.3,26.8,30.02,WSW,255,0.0,4.0,52,0.00,,,0.00,Wunderground v.1.15,2013-02-14 23:15:00,
2013-02-14 18:20:00,43.1,27.1,30.02,South,189,0.0,4.0,53,0.00,,,0.00,Wunderground v.1.15,2013-02-14 23:20:00,
2013-02-14 18:25:00,42.9,26.9,30.02,WSW,252,0.0,4.0,53,0.00,,,0.00,Wunderground v.1.15,2013-02-14 23:25:00,
2013-02-14 18:30:00,42.6,27.5,30.02,WSW,252,0.0,4.0,55,0.00,,,0.00,Wunderground v.1.15,2013-02-14 23:30:00,
2013-02-14 18:35:00,42.3,27.3,30.02,WSW,253,0.0,4.0,55,0.00,,,0.00,Wunderground v.1.15,2013-02-14 23:35:00,
2013-02-14 18:40:00,42.1,27.5,30.02,WSW,253,0.0,4.0,56,0.00,,,0.00,Wunderground v.1.15,2013-02-14 23:40:00,
2013-02-14 18:45:00,41.8,27.7,30.02,West,269,0.0,4.0,57,0.00,,,0.00,Wunderground v.1.15,2013-02-14 23:45:00,
2013-02-14 18:50:00,41.6,27.5,30.02,West,267,0.0,4.0,57,0.00,,,0.00,Wunderground v.1.15,2013-02-14 23:50:00,
2013-02-14 18:55:00,41.5,27.4,30.02,West,267,0.0,4.0,57,0.00,,,0.00,Wunderground v.1.15,2013-02-14 23:55:00,
2013-02-14 19:00:00,41.3,27.6,30.02,West,267,0.0,4.0,58,0.00,,,0.00,Wunderground v.1.15,2013-02-15 00:00:00,
2013-02-14 19:05:00,41.1,27.9,30.02,West,267,0.0,4.0,59,0.00,,,0.00,Wunderground v.1.15,2013-02-15 00:05:00,
2013-02-14 19:10:00,40.8,27.6,30.02,West,266,0.0,4.0,59,0.00,,,0.00,Wunderground v.1.15,2013-02-15 00:10:00,
2013-02-14 19:15:00,40.5,27.3,30.02,WNW,298,0.0,4.0,59,0.00,,,0.00,Wunderground v.1.15,2013-02-15 00:15:00,
2013-02-14 19:20:00,40.2,27.4,30.02,WNW,301,0.0,4.0,60,0.00,,,0.00,Wunderground v.1.15,2013-02-15 00:20:00,
2013-02-14 19:25:00,40.0,27.2,30.02,WNW,301,0.0,4.0,60,0.00,,,0.00,Wunderground v.1.15,2013-02-15 00:25:00,
2013-02-14 19:30:00,39.9,26.7,30.03,WNW,301,0.0,4.0,59,0.00,,,0.00,Wunderground v.1.15,2013-02-15 00:30:00,
2013-02-14 19:35:00,39.9,27.1,30.03,WNW,301,0.0,4.0,60,0.00,,,0.00,Wunderground v.1.15,2013-02-15 00:35:00,
2013-02-14 19:40:00,39.9,27.1,30.03,WNW,290,0.0,4.0,60,0.00,,,0.00,Wunderground v.1.15,2013-02-15 00:40:00,
2013-02-14 19:45:00,39.7,27.7,30.03,WSW,241,0.0,4.0,62,0.00,,,0.00,Wunderground v.1.15,2013-02-15 00:45:00,
2013-02-14 19:55:00,39.8,27.8,30.03,WSW,243,0.0,4.0,62,0.00,,,0.00,Wunderground v.1.15,2013-02-15 00:55:00,
2013-02-14 20:00:00,39.6,28.0,30.03,WSW,243,0.0,4.0,63,0.00,,,0.00,Wunderground v.1.15,2013-02-15 01:00:00,
2013-02-14 20:05:00,39.3,28.1,30.03,WSW,243,0.0,4.0,64,0.00,,,0.00,Wunderground v.1.15,2013-02-15 01:05:00,
2013-02-14 20:10:00,39.5,27.9,30.03,WSW,246,0.0,4.0,63,0.00,,,0.00,Wunderground v.1.15,2013-02-15 01:10:00,
2013-02-14 20:20:00,39.5,28.3,30.03,WNW,285,0.0,4.0,64,0.00,,,0.00,Wunderground v.1.15,2013-02-15 01:20:00,
2013-02-14 20:25:00,39.4,28.2,30.03,WNW,285,0.0,4.0,64,0.00,,,0.00,Wunderground v.1.15,2013-02-15 01:25:00,
2013-02-14 20:30:00,39.1,27.9,30.03,WNW,285,0.0,4.0,64,0.00,,,0.00,Wunderground v.1.15,2013-02-15 01:30:00,
2013-02-14 20:35:00,38.8,28.0,30.03,WNW,287,0.0,4.0,65,0.00,,,0.00,Wunderground v.1.15,2013-02-15 01:35:00,
2013-02-14 20:40:00,38.5,27.7,30.03,NW,309,0.0,4.0,65,0.00,,,0.00,Wunderground v.1.15,2013-02-15 01:40:00,
2013-02-14 20:45:00,38.5,27.7,30.03,NW,309,0.0,4.0,65,0.00,,,0.00,Wunderground v.1.15,2013-02-15 01:45:00,
2013-02-14 20:50:00,38.4,28.0,30.03,NW,309,0.0,4.0,66,0.00,,,0.00,Wunderground v.1.15,2013-02-15 01:50:00,
2013-02-14 20:55:00,38.3,27.9,30.03,NW,309,0.0,4.0,66,0.00,,,0.00,Wunderground v.1.15,2013-02-15 01:55:00,
2013-02-14 21:00:00,38.2,27.8,30.03,NW,309,0.0,4.0,66,0.00,,,0.00,Wunderground v.1.15,2013-02-15 02:00:00,
2013-02-14 21:05:00,38.1,27.7,30.04,NNW,343,0.0,4.0,66,0.00,,,0.00,Wunderground v.1.15,2013-02-15 02:05:00,
2013-02-14 21:10:00,38.2,27.8,30.04,North,356,0.0,4.0,66,0.00,,,0.00,Wunderground v.1.15,2013-02-15 02:10:00,
2013-02-14 21:15:00,38.2,27.8,30.05,North,355,0.0,4.0,66,0.00,,,0.00,Wunderground v.1.15,2013-02-15 02:15:00,
2013-02-14 21:20:00,38.2,27.8,30.05,North,354,0.0,4.0,66,0.00,,,0.00,Wunderground v.1.15,2013-02-15 02:20:00,
2013-02-14 21:25:00,38.3,27.9,30.05,North,356,0.0,4.0,66,0.00,,,0.00,Wunderground v.1.15,2013-02-15 02:25:00,
2013-02-14 21:30:00,38.0,28.0,30.06,North,356,0.0,4.0,67,0.00,,,0.00,Wunderground v.1.15,2013-02-15 02:30:00,
2013-02-14 21:35:00,37.7,27.7,30.06,North,356,0.0,4.0,67,0.00,,,0.00,Wunderground v.1.15,2013-02-15 02:35:00,
2013-02-14 21:40:00,37.6,27.6,30.06,North,356,0.0,4.0,67,0.00,,,0.00,Wunderground v.1.15,2013-02-15 02:40:00,
2013-02-14 21:45:00,37.6,27.6,30.06,North,355,0.0,4.0,67,0.00,,,0.00,Wunderground v.1.15,2013-02-15 02:45:00,
2013-02-14 21:50:00,37.6,27.6,30.06,North,356,0.0,4.0,67,0.00,,,0.00,Wunderground v.1.15,2013-02-15 02:50:00,
2013-02-14 21:55:00,37.6,27.6,30.06,North,356,0.0,4.0,67,0.00,,,0.00,Wunderground v.1.15,2013-02-15 02:55:00,
2013-02-14 22:00:00,37.5,27.5,30.06,North,356,0.0,4.0,67,0.00,,,0.00,Wunderground v.1.15,2013-02-15 03:00:00,
2013-02-14 22:05:00,37.5,27.9,30.06,North,356,0.0,4.0,68,0.00,,,0.00,Wunderground v.1.15,2013-02-15 03:05:00,
2013-02-14 22:10:00,37.6,28.0,30.06,North,356,0.0,4.0,68,0.00,,,0.00,Wunderground v.1.15,2013-02-15 03:10:00,
2013-02-14 22:15:00,37.6,28.0,30.06,North,356,0.0,4.0,68,0.00,,,0.00,Wunderground v.1.15,2013-02-15 03:15:00,
2013-02-14 22:20:00,37.5,27.9,30.06,North,356,0.0,4.0,68,0.00,,,0.00,Wunderground v.1.15,2013-02-15 03:20:00,
2013-02-14 22:25:00,37.5,28.2,30.06,North,354,0.0,4.0,69,0.00,,,0.00,Wunderground v.1.15,2013-02-15 03:25:00,
2013-02-14 22:30:00,37.6,28.3,30.06,North,356,0.0,4.0,69,0.00,,,0.00,Wunderground v.1.15,2013-02-15 03:30:00,
2013-02-14 22:35:00,37.6,28.3,30.06,North,356,0.0,4.0,69,0.00,,,0.00,Wunderground v.1.15,2013-02-15 03:35:00,
2013-02-14 22:40:00,37.6,28.3,30.06,North,356,0.0,4.0,69,0.00,,,0.00,Wunderground v.1.15,2013-02-15 03:40:00,
2013-02-14 22:45:00,37.6,28.3,30.06,North,356,0.0,4.0,69,0.00,,,0.00,Wunderground v.1.15,2013-02-15 03:45:00,
2013-02-14 22:50:00,37.5,28.2,30.06,North,356,0.0,4.0,69,0.00,,,0.00,Wunderground v.1.15,2013-02-15 03:50:00,
2013-02-14 22:55:00,37.5,28.2,30.06,North,356,0.0,4.0,69,0.00,,,0.00,Wunderground v.1.15,2013-02-15 03:55:00,
2013-02-14 23:00:00,37.6,28.3,30.06,North,356,0.0,4.0,69,0.00,,,0.00,Wunderground v.1.15,2013-02-15 04:00:00,
2013-02-14 23:05:00,37.6,28.3,30.06,North,356,0.0,4.0,69,0.00,,,0.00,Wunderground v.1.15,2013-02-15 04:05:00,
2013-02-14 23:10:00,37.6,28.3,30.07,North,356,0.0,4.0,69,0.00,,,0.00,Wunderground v.1.15,2013-02-15 04:10:00,
2013-02-14 23:15:00,37.5,28.6,30.07,North,356,0.0,4.0,70,0.00,,,0.00,Wunderground v.1.15,2013-02-15 04:15:00,
2013-02-14 23:25:00,37.4,28.5,30.07,North,356,0.0,4.0,70,0.00,,,0.00,Wunderground v.1.15,2013-02-15 04:25:00,
2013-02-14 23:30:00,37.4,28.5,30.07,North,356,0.0,4.0,70,0.00,,,0.00,Wunderground v.1.15,2013-02-15 04:30:00,
2013-02-14 23:35:00,37.3,28.4,30.07,North,356,0.0,4.0,70,0.00,,,0.00,Wunderground v.1.15,2013-02-15 04:35:00,
2013-02-14 23:45:00,37.1,28.2,30.06,North,356,0.0,4.0,70,0.00,,,0.00,Wunderground v.1.15,2013-02-15 04:45:00,
2013-02-14 23:50:00,37.0,28.5,30.07,North,356,0.0,4.0,71,0.00,,,0.00,Wunderground v.1.15,2013-02-15 04:50:00,
2013-02-14 23:55:00,37.1,28.2,30.07,North,356,0.0,4.0,70,0.00,,,0.00,Wunderground v.1.15,2013-02-15 04:55:00,